Location: N�rnberg
(49.4471°N, 11.0632°E)
Time: 18:24:44
(UTC+01:00)

ARIANE 6 FM1 Upper Stage - Pass Details

Date: 16 February 2026
Orbit: 523 x 607 km, 62.0° (Epoch: 8 March)

Event Time Altitude Azimuth Distance (km) Brightness Sun altitude
Rises 20:16:03 0° 307° (NW) 2,659 7.1 -26.3°
Reaches altitude 10° 20:18:30 10° 293° (WNW) 1,768 6.2 -26.7°
Maximum altitude 20:21:45 25° 238° (WSW) 1,103 4.5 -27.2°
Enters shadow 20:22:10 24° 228° (SW) 1,118 4.4 -27.3°
